SCP
0 0 0 0 0 0 0 1 1 1 1 0 0 0 0 0 0 0 0 0 0 0 0 0 0 0 0 0 0 0 0 0 0 0 0 0 0 0 0 0 0 0 0
0 0 0 0 0 1 1 1 1 1 0 0 0 0 0 0 0 0 0 0 0 0 0 0 0 0 0 0 0 0 0 0 0 0 0 0 0 0 0 0 0 0 0
0 0 0 0 0 1 1 1 1 1 0 0 0 0 0 0 0 0 0 0 0 0 0 0 0 0 0 0 0 0 0 0 0 0 0 0 0 0 0 0 0 0 0
0 0 0 0 0 1 1 1 1 0 0 0 0 0 0 0 0 0 0 0 0 0 0 0 0 0 0 0 0 0 0 0 0 0 0 0 0 0 0 0 0 0 0
0 0 0 0 0 0 0 0 0 0 0 0 0 0 0 0 0 0 0 0 0 0 0 0 0 0 0 0 0 0 0 0 0 0 0 0 0 0 0 0 0 0 0
0 0 0 0 0 0 0 0 0 0 0 0 0 0 0 0 0 0 0 0 0 0 0 0 0 0 0 0 0 0 0 0 0 0 0 0 0 0 0 0 0 0 0
0 0 0 0 0 0 0 0 0 0 0 0 0 0 0 0 0 0 0 0 0 0 0 0 0 0 0 0 0 0 0 0 0 0 0 0 0 0 0 0 0 0 0
0 0 0 0 0 0 0 0 0 0 0 0 0 0 0 0 0 0 0 0 0 0 0 0 0 0 0 0 0 0 0 0 0 0 0 0 0 0 0 0 0 0 0
0 0 0 0 0 0 0 0 0 0 0 0 0 0 0 0 0 0 0 0 0 0 0 0 0 0 0 0 0 0 0 0 0 0 0 0 0 0 0 0 0 0 0
0 0 0 0 0 0 0 0 0 0 0 0 0 0 0 0 0 0 0 0 0 0 0 0 0 0 0 0 0 0 0 0 0 0 0 0 0 0 0 0 0 0 0
0 0 0 0 0 0 0 0 0 0 0 0 0 0 0 0 0 0 0 0 0 0 0 0 0 0 0 0 0 0 0 0 0 0 0 0 0 0 0 0 0 0 0
0 0 0 0 0 0 0 0 0 0 0 0 0 0 0 0 0 0 0 0 0 0 0 0 0 0 0 0 0 0 0 0 0 0 0 0 0 0 0 0 0 0 0
0 0 0 0 0 0 0 0 0 0 0 0 0 0 0 0 0 0 0 0 0 0 0 0 0 0 0 0 0 0 0 0 0 0 0 0 0 0 0 0 0 0 0
0 0 0 0 0 0 0 0 0 0 0 0 0 0 0 0 0 0 0 0 0 0 0 0 0 0 0 0 0 0 0 0 0 0 0 0 0 0 0 0 0 0 0
0 0 0 0 0 0 0 0 0 0 0 0 0 0 0 0 0 0 0 0 0 0 0 0 0 0 0 0 0 0 0 0 0 0 0 0 0 0 0 0 0 0 0
0 0 0 0 0 0 0 0 0 0 0 0 0 0 0 0 0 0 0 0 0 0 0 0 0 0 0 0 0 0 0 0 0 0 0 0 0 0 0 0 0 0 0
0 0 0 0 0 0 0 0 0 0 0 0 0 0 0 0 0 0 0 0 0 0 0 0 0 0 0 0 0 0 0 0 0 0 0 0 0 0 0 0 0 0 0
0 0 0 0 0 0 0 0 0 0 0 0 0 0 0 0 0 0 0 0 0 0 0 0 0 0 0 0 0 0 0 0 0 0 0 0 0 0 0 0 0 0 0
0 0 0 0 0 0 0 0 0 0 0 0 0 0 0 0 0 0 0 0 0 0 0 0 0 0 0 0 0 0 0 0 0 0 0 0 0 0 0 0 0 0 0
0 0 0 0 0 0 0 0 0 0 0 0 0 0 0 0 0 0 0 0 0 0 0 0 0 0 0 0 0 0 0 0 0 0 0 0 0 0 0 0 0 0 0
0 0 0 0 0 0 0 0 0 0 0 0 0 0 0 0 0 0 0 0 0 0 0 0 0 0 0 0 0 0 0 0 0 0 0 0 0 0 0 0 0 0 0
0 0 0 0 0 0 0 0 0 0 0 0 0 0 0 0 0 0 0 0 0 0 0 0 0 0 0 0 0 0 0 0 0 0 0 0 0 0 0 0 0 0 0
0 0 0 0 0 0 0 0 0 0 0 0 0 0 0 0 0 0 0 0 0 0 0 0 0 0 0 0 0 0 0 0 0 0 0 0 0 0 0 0 0 0 0
0 0 0 0 0 0 0 0 0 0 0 0 0 0 0 0 0 0 0 0 0 0 0 0 0 0 0 0 0 0 0 0 0 0 0 0 0 0 0 0 0 0 0
0 0 0 0 0 0 0 0 0 0 0 0 0 0 0 0 0 0 0 0 0 0 0 0 0 0 0 0 0 0 0 0 0 0 0 0 0 0 0 0 0 0 0
0 0 0 0 0 0 0 0 0 0 0 0 0 0 0 0 0 0 0 0 0 0 0 0 0 0 0 0 0 0 0 0 0 0 0 0 0 0 0 0 0 0 0
Wind_Speed
11 11 11 11 12 12 11 11 10 9 11 12 12 12 11 11 10 10 9 10 10 8 7 9 8 6 5 4 4 4 3 4 4 2 2 3 3 2 1 1 1 1 2
8 8 9 10 10 11 11 11 10 10 10 10 11 11 11 11 11 11 11 11 11 12 10 10 9 7 7 5 5 5 4 3 4 4 2 2 2 2 1 1 1 1 2
6 7 7 8 9 10 10 9 9 9 9 9 10 11 11 11 11 11 11 12 12 12 12 12 11 11 9 6 6 5 4 4 3 4 3 2 1 1 1 1 1 2 3
5 6 7 7 8 8 7 8 8 9 9 10 10 10 10 10 10 10 10 10 10 9 10 10 11 12 11 10 8 7 6 5 4 4 3 2 2 1 1 1 1 1 2
6 6 7 5 5 5 5 6 6 7 8 8 8 8 8 8 9 11 10 11 11 10 8 8 9 10 12 10 8 9 9 6 5 4 3 2 2 2 2 1 1 2 3
6 6 5 4 4 4 4 4 5 5 6 7 8 9 9 7 12 16 13 11 11 11 11 9 8 9 12 13 12 12 12 9 8 5 4 4 4 3 2 2 1 1 2
5 4 4 4 4 4 4 4 5 6 6 7 7 8 8 10 15 16 14 10 11 11 12 11 8 7 9 9 11 12 9 10 10 6 6 5 4 4 4 2 2 2 3
5 4 4 4 4 4 4 4 4 4 5 6 6 7 7 8 15 16 14 8 7 8 9 11 12 12 11 11 10 8 6 5 6 4 4 4 4 4 4 3 2 2 3
5 5 5 5 5 5 5 5 4 4 4 4 5 6 7 8 14 16 15 8 7 7 7 8 10 11 16 17 11 10 7 4 6 7 6 6 6 6 5 3 2 1 2
5 5 4 5 5 6 5 5 3 4 4 4 4 5 6 7 13 16 16 7 8 7 7 7 9 13 18 18 11 10 10 7 6 6 5 5 4 4 6 4 4 3 2
4 4 4 4 4 4 4 4 4 4 5 4 4 4 4 6 12 16 16 7 8 9 8 7 8 16 18 18 12 8 9 9 7 6 4 4 3 3 3 3 3 4 4
5 5 4 4 4 4 5 5 5 5 6 5 4 4 3 4 7 12 15 11 10 7 7 6 8 17 17 16 11 10 12 9 5 5 4 5 5 5 4 4 4 3 3
5 4 4 4 4 4 5 6 5 5 4 4 4 4 4 3 5 11 13 13 12 6 5 10 12 16 15 11 12 13 9 6 6 5 6 6 4 4 4 3 2 2 3
5 4 4 4 4 3 3 3 4 4 4 5 5 5 4 4 5 5 6 7 8 7 6 8 13 14 10 8 8 8 6 6 6 6 5 4 3 4 3 3 3 2 2
5 4 4 3 4 3 3 2 2 2 3 4 4 5 6 6 8 12 9 7 7 7 8 5 6 7 7 6 5 5 5 5 6 5 4 4 4 4 4 3 3 3 4
4 4 3 3 3 3 3 2 2 2 2 3 4 4 3 5 10 14 14 13 14 15 9 7 8 8 8 8 8 7 7 7 7 6 5 6 6 6 5 4 4 4 5
4 4 3 3 3 3 3 3 2 1 1 2 3 5 5 7 10 13 14 14 15 16 7 7 7 8 8 8 8 8 8 7 6 7 7 7 6 6 5 5 5 5 5
4 4 3 2 2 2 2 2 2 2 1 0 1 4 6 7 9 12 14 12 9 10 6 6 7 7 7 8 8 7 7 6 7 7 7 7 7 6 6 6 6 6 6
3 3 2 2 2 2 2 2 2 2 2 1 1 1 4 6 8 11 13 7 7 8 7 6 6 6 6 7 7 7 7 7 7 7 7 8 7 7 7 7 6 7 6
3 4 3 2 2 2 1 1 1 1 1 2 2 2 2 3 4 6 7 6 6 6 7 7 6 6 6 6 6 6 7 7 8 8 7 7 7 7 8 8 7 7 7
3 3 4 3 2 1 1 1 0 1 1 1 2 3 6 4 4 5 5 6 6 6 6 6 5 6 6 5 6 7 8 7 7 7 7 7 7 7 6 6 7 6 6
3 2 2 2 2 1 1 1 0 0 1 1 1 2 5 3 3 4 4 5 5 4 4 5 5 5 6 7 7 7 8 8 7 8 8 7 7 7 7 7 7 6 6
3 3 2 2 1 1 1 1 0 1 1 1 1 1 2 3 3 3 4 3 3 3 3 4 5 5 5 5 6 7 8 8 8 8 8 8 7 7 7 8 9 8 7
3 3 2 2 2 1 1 1 1 1 1 2 2 2 2 3 3 4 3 3 3 3 3 3 4 6 7 6 5 5 6 6 6 7 10 9 8 8 7 7 8 8 8
2 2 2 1 1 1 1 1 1 2 2 2 2 2 3 3 3 3 3 3 3 3 4 4 3 4 6 7 7 6 8 9 8 7 8 8 9 9 9 9 8 8 7
2 2 1 1 1 1 2 2 2 2 2 3 3 3 3 3 3 3 3 3 3 3 4 4 5 6 6 6 8 9 9 10 10 10 8 7 9 8 9 8 9 8 8
Wind_Direction
213 213 211 210 207 206 209 209 205 198 193 192 192 191 190 188 183 181 180 175 176 170 166 166 165 156 155 155 146 142 136 131 143 132 106 124 127 133 104 19 343 339 327
215 215 215 212 206 206 209 208 201 199 194 190 185 186 186 184 181 182 179 178 177 175 172 167 165 160 157 155 153 149 144 133 137 148 130 127 141 154 131 309 308 315 306
212 215 217 213 209 209 208 203 198 196 192 185 182 184 183 182 182 183 180 179 181 177 173 172 169 163 163 160 156 151 143 128 116 135 142 134 144 148 115 299 299 304 303
204 212 218 216 213 211 204 198 196 192 189 187 185 182 179 178 178 175 174 174 175 172 171 170 169 170 168 163 159 154 143 133 125 132 140 153 161 154 136 215 294 298 297
199 209 217 214 209 200 194 191 188 188 187 180 175 172 170 173 176 172 171 170 169 164 162 164 164 163 160 160 161 161 153 148 147 151 159 157 168 164 180 177 248 300 292
199 209 203 193 191 192 189 179 177 176 170 167 172 170 172 177 176 176 172 170 167 165 162 157 151 153 154 154 156 161 160 159 164 165 173 181 183 174 158 164 210 309 294
195 199 191 182 183 188 179 171 176 175 168 169 170 170 175 179 175 175 173 167 167 169 164 159 155 153 150 147 151 154 161 170 172 166 172 180 171 169 159 176 208 225 248
187 191 185 177 178 176 176 180 175 164 169 170 171 171 171 177 173 171 164 157 158 162 164 164 160 159 161 154 150 150 151 159 165 161 159 157 149 149 160 173 189 241 273
187 189 186 178 176 175 180 178 165 157 160 161 162 165 168 171 170 167 159 151 148 152 153 157 161 162 166 161 156 156 156 162 169 159 154 156 161 166 163 144 158 197 268
186 180 173 173 175 178 176 163 151 150 152 146 152 162 166 166 171 169 163 155 153 154 153 157 169 168 169 168 165 163 168 170 160 158 161 168 167 178 188 179 175 191 222
157 151 154 160 164 162 152 144 140 138 136 140 145 147 157 163 172 173 170 162 162 162 166 169 176 176 175 175 171 171 173 157 159 162 163 169 174 179 182 182 184 193 207
134 139 145 147 145 145 143 139 138 142 144 145 144 141 143 154 169 177 175 171 162 164 171 168 174 177 178 176 173 172 165 153 154 165 177 193 196 195 189 186 190 204 220
127 133 135 133 132 142 149 148 145 149 151 155 158 162 159 155 172 177 176 172 168 156 157 166 170 176 175 176 177 171 162 161 168 184 200 206 197 182 166 169 183 203 242
128 128 129 134 135 137 141 148 155 163 165 165 171 171 164 165 168 168 168 168 166 155 148 159 169 173 170 163 170 175 175 180 187 198 200 186 161 165 180 179 185 186 227
119 121 125 128 133 134 126 134 153 168 180 176 180 174 173 185 192 183 172 173 166 160 145 145 160 166 173 175 178 182 183 187 197 199 191 186 186 190 194 182 182 183 205
117 119 120 122 123 124 123 102 106 124 140 171 172 170 181 181 176 185 187 181 175 167 158 174 182 184 187 188 191 194 196 202 202 197 197 199 200 200 198 190 192 201 216
108 112 110 114 122 128 135 143 134 80 104 161 179 184 181 176 181 187 189 186 185 179 185 189 192 193 195 196 198 200 204 201 195 199 204 204 202 200 198 201 203 210 220
86 94 101 112 122 130 139 145 149 155 161 203 220 205 194 190 190 190 189 182 190 193 201 201 201 199 200 202 202 204 203 194 196 203 205 204 202 199 202 206 207 209 214
75 82 88 97 105 114 121 130 144 158 167 171 154 210 206 203 200 199 190 193 198 203 206 209 207 204 204 205 204 202 201 200 200 201 204 204 202 201 206 208 208 209 207
61 67 72 82 88 92 101 119 146 170 186 192 196 196 178 179 199 204 204 202 208 213 211 213 212 208 206 206 204 202 203 204 201 203 205 204 202 203 208 207 206 206 209
51 55 60 68 74 81 92 116 158 200 222 228 223 216 205 202 211 213 214 214 217 220 218 216 214 210 209 207 205 206 209 211 206 204 203 203 201 204 207 207 208 208 206
45 51 55 60 59 60 55 51 42 255 248 250 254 258 243 231 229 230 228 228 226 224 220 218 219 214 210 208 206 207 211 213 209 204 202 201 202 203 201 203 204 204 202
38 45 47 45 45 43 37 17 340 295 283 278 269 256 256 248 246 246 247 244 237 233 227 223 224 222 216 212 208 208 213 214 208 200 199 200 200 201 201 205 203 200 202
27 34 36 29 24 21 360 329 312 299 291 288 282 272 264 262 263 263 260 256 250 243 233 228 229 232 226 216 214 216 220 217 202 199 198 198 199 200 200 203 203 203 203
24 24 23 16 3 343 325 311 302 295 287 282 281 280 280 279 276 277 279 275 266 259 253 245 241 240 237 231 226 222 225 225 215 200 196 199 201 200 200 201 200 198 200
11 9 359 350 335 320 309 301 297 296 290 288 285 283 282 280 280 280 279 275 272 267 261 251 247 246 243 238 238 234 230 230 222 209 199 199 201 203 199 201 198 196 194